Weather History for KCOQ - June, 2013

Change the Weather History Date:

Wednesday, June 12, 2013

  Actual Average Record
Temperature  
Mean Temperature 64 °F -  
Max Temperature 80 °F 66 °F 80 °F (1997)
Min Temperature 48 °F 45 °F 33 °F (2008)
Degree Days  
Heating Degree Days 1    
Growing Degree Days 14 (Base 50)    
Moisture  
Dew Point 43 °F    
Average Humidity 48    
Maximum Humidity 87    
Minimum Humidity 21    
Precipitation  
Precipitation 0.00 in - - ()
Sea Level Pressure  
Sea Level Pressure 29.89 in    
Wind  
Wind Speed 5 mph (NNW)    
Max Wind Speed 16 mph    
Max Gust Speed 24 mph    
Visibility 10 miles    
Events Thunderstorm    
Averages and records for this station are not official NWS values.
T = Trace of Precipitation, MM = Missing Value Source: NWS Daily Summary

Daily Weather History Graph

Daily Weather History Graph

Search for Another Location

Airport or City:

Trip Planner

Search our weather history database for the weather conditions in past years. The results will help you decide how hot, cold, wet, or windy it might be!

Date:

Astronomy

Jun. 12, 2013 Rise Set
Actual Time 5:15 AM CDT 9:04 PM CDT
Civil Twilight 4:36 AM CDT 9:43 PM CDT
Nautical Twilight 3:43 AM CDT 10:36 PM CDT
Astronomical Twilight 2:26 AM CDT 11:54 PM CDT
Moon 9:06 AM CDT (6/12) 11:27 PM CDT (6/12)
Length of Visible Light 17h 06m
Length of Day
15h 48m
Waxing Crescent, 14% of the Moon is Illuminated
Jun 12
Waxing Crescent
Jun 16
First Quarter
Jun 23
Full
Jun 29
Last Quarter
Jul 8
New

Hourly Weather History & Observations

Time (CDT) Temp. Dew Point Humidity Pressure Visibility Wind Dir Wind Speed Gust Speed Precip Events Conditions
12:16 AM 55.4 °F 44.6 °F 67% 29.92 in 10.0 mi NW 3.5 mph - N/A   Clear
12:36 AM 53.6 °F 46.4 °F 77% 29.91 in 10.0 mi NNW 4.6 mph - N/A   Clear
12:55 AM 53.6 °F 44.6 °F 72% 29.90 in 10.0 mi NNW 5.8 mph - N/A   Clear
1:16 AM 53.6 °F 44.6 °F 72% 29.90 in 10.0 mi NNW 4.6 mph - N/A   Clear
1:36 AM 53.6 °F 44.6 °F 72% 29.90 in 10.0 mi Calm Calm - N/A Thunderstorm Clear
1:55 AM 51.8 °F 44.6 °F 76% 29.89 in 10.0 mi Calm Calm - N/A Thunderstorm Clear
2:16 AM 48.2 °F 42.8 °F 82% 29.90 in 10.0 mi Calm Calm - N/A   Clear
2:36 AM 48.2 °F 42.8 °F 82% 29.91 in 10.0 mi West 4.6 mph - N/A   Clear
2:56 AM 50.0 °F 42.8 °F 76% 29.91 in 10.0 mi Calm Calm - N/A   Clear
3:15 AM 48.2 °F 44.6 °F 87% 29.90 in 10.0 mi Calm Calm - N/A   Clear
3:36 AM 50.0 °F 44.6 °F 82% 29.90 in 10.0 mi NNW 3.5 mph - N/A   Clear
3:56 AM 48.2 °F 42.8 °F 82% 29.90 in 10.0 mi WNW 3.5 mph - N/A   Clear
4:16 AM 50.0 °F 44.6 °F 82% 29.88 in 10.0 mi NNW 3.5 mph - N/A   Clear
4:36 AM 51.8 °F 44.6 °F 76% 29.88 in 10.0 mi NNW 3.5 mph - N/A   Clear
4:56 AM 51.8 °F 44.6 °F 76% 29.88 in 10.0 mi NNW 3.5 mph - N/A   Clear
5:16 AM 51.8 °F 44.6 °F 76% 29.89 in 10.0 mi Calm Calm - N/A   Clear
5:36 AM 51.8 °F 44.6 °F 76% 29.90 in 10.0 mi Calm Calm - N/A   Clear
5:56 AM 51.8 °F 46.4 °F 82% 29.88 in 10.0 mi North 3.5 mph - N/A   Clear
6:15 AM 53.6 °F 46.4 °F 77% 29.89 in 10.0 mi Calm Calm - N/A   Clear
6:36 AM 55.4 °F 48.2 °F 77% 29.89 in 10.0 mi NW 3.5 mph - N/A   Clear
6:56 AM 57.2 °F 48.2 °F 72% 29.89 in 10.0 mi NNW 3.5 mph - N/A   Clear
7:15 AM 60.8 °F 48.2 °F 63% 29.89 in 10.0 mi Calm Calm - N/A   Clear
7:36 AM 64.4 °F 50.0 °F 59% 29.89 in 10.0 mi Calm Calm - N/A   Clear
7:56 AM 66.2 °F 46.4 °F 49% 29.89 in 10.0 mi SSE 3.5 mph - N/A   Clear
8:16 AM 68.0 °F 46.4 °F 46% 29.88 in 10.0 mi SSE 3.5 mph - N/A   Clear
8:36 AM 68.0 °F 46.4 °F 46% 29.88 in 10.0 mi Calm Calm - N/A   Clear
8:56 AM 69.8 °F 46.4 °F 43% 29.88 in 10.0 mi Calm Calm - N/A   Clear
9:16 AM 71.6 °F 48.2 °F 43% 29.89 in 10.0 mi Calm Calm - N/A   Clear
9:36 AM 71.6 °F 46.4 °F 41% 29.90 in 10.0 mi Calm Calm - N/A   Clear
9:56 AM 73.4 °F 46.4 °F 38% 29.90 in 10.0 mi Calm Calm - N/A   Clear
10:16 AM 73.4 °F 44.6 °F 36% 29.89 in 10.0 mi Calm Calm - N/A   Clear
10:36 AM 75.2 °F 42.8 °F 31% 29.89 in 10.0 mi WSW 3.5 mph - N/A   Clear
10:56 AM 75.2 °F 37.4 °F 25% 29.87 in 10.0 mi North 3.5 mph - N/A   Clear
11:16 AM 75.2 °F 35.6 °F 24% 29.87 in 10.0 mi Calm Calm - N/A   Clear
11:36 AM 75.2 °F 39.2 °F 27% 29.87 in 10.0 mi Calm Calm - N/A   Clear
11:56 AM 75.2 °F 39.2 °F 27% 29.87 in 10.0 mi NNE 3.5 mph - N/A   Clear
12:16 PM 78.8 °F 37.4 °F 23% 29.86 in 10.0 mi WSW 4.6 mph - N/A   Scattered Clouds
12:36 PM 78.8 °F 37.4 °F 23% 29.86 in 10.0 mi WSW 4.6 mph - N/A   Clear
12:56 PM 78.8 °F 39.2 °F 24% 29.86 in 10.0 mi NW 6.9 mph - N/A   Mostly Cloudy
1:16 PM 80.6 °F 44.6 °F 28% 29.85 in 10.0 mi NNW 3.5 mph - N/A   Scattered Clouds
1:36 PM 77.0 °F 39.2 °F 26% 29.85 in 10.0 mi North 5.8 mph - N/A   Scattered Clouds
1:56 PM 77.0 °F 39.2 °F 26% 29.85 in 10.0 mi North 5.8 mph - N/A   Clear
2:16 PM 78.8 °F 35.6 °F 21% 29.85 in 10.0 mi NW 9.2 mph - N/A   Clear
2:36 PM 78.8 °F 39.2 °F 24% 29.85 in 10.0 mi NNW 9.2 mph - N/A   Clear
2:56 PM 77.0 °F 41.0 °F 28% 29.85 in 10.0 mi NNW 11.5 mph 17.3 mph N/A   Clear
3:16 PM 75.2 °F 42.8 °F 31% 29.85 in 10.0 mi NNW 10.4 mph 19.6 mph N/A   Clear
3:36 PM 75.2 °F 44.6 °F 34% 29.84 in 10.0 mi North 11.5 mph 17.3 mph N/A   Clear
3:56 PM 75.2 °F 42.8 °F 31% 29.84 in 10.0 mi North 9.2 mph 16.1 mph N/A   Clear
4:16 PM 77.0 °F 42.8 °F 29% 29.84 in 10.0 mi North 9.2 mph - N/A   Scattered Clouds
4:36 PM 75.2 °F 42.8 °F 31% 29.84 in 10.0 mi North 10.4 mph 19.6 mph N/A   Scattered Clouds
4:56 PM 75.2 °F 44.6 °F 34% 29.84 in 10.0 mi North 9.2 mph 18.4 mph N/A   Clear
5:16 PM 73.4 °F 42.8 °F 33% 29.85 in 10.0 mi NNW 12.7 mph 18.4 mph N/A   Clear
5:35 PM 73.4 °F 42.8 °F 33% 29.85 in 10.0 mi North 11.5 mph 20.7 mph N/A   Clear
5:56 PM 73.4 °F 42.8 °F 33% 29.85 in 10.0 mi NNW 12.7 mph 18.4 mph N/A   Clear
6:15 PM 73.4 °F 42.8 °F 33% 29.85 in 10.0 mi North 11.5 mph 19.6 mph N/A   Clear
6:36 PM 73.4 °F 39.2 °F 29% 29.85 in 10.0 mi NNW 16.1 mph 23.0 mph N/A   Clear
6:56 PM 73.4 °F 41.0 °F 31% 29.86 in 10.0 mi North 12.7 mph 21.9 mph N/A   Clear
7:16 PM 71.6 °F 39.2 °F 31% 29.87 in 10.0 mi North 13.8 mph 23.0 mph N/A   Clear
7:35 PM 71.6 °F 39.2 °F 31% 29.88 in 10.0 mi North 13.8 mph 24.2 mph N/A   Clear
7:56 PM 69.8 °F 39.2 °F 33% 29.89 in 10.0 mi NNW 15.0 mph 20.7 mph N/A   Clear
8:16 PM 66.2 °F 41.0 °F 40% 29.91 in 10.0 mi North 10.4 mph 17.3 mph N/A   Clear
8:36 PM 66.2 °F 39.2 °F 37% 29.90 in 10.0 mi NNW 12.7 mph 17.3 mph N/A   Clear
8:56 PM 66.2 °F 41.0 °F 40% 29.91 in 10.0 mi NW 11.5 mph - N/A   Clear
9:15 PM 64.4 °F 41.0 °F 42% 29.91 in 10.0 mi NNW 12.7 mph - N/A   Clear
9:36 PM 64.4 °F 41.0 °F 42% 29.91 in 10.0 mi NNW 11.5 mph 17.3 mph N/A   Clear
9:56 PM 64.4 °F 41.0 °F 42% 29.93 in 10.0 mi NNW 8.1 mph - N/A   Clear
10:16 PM 62.6 °F 42.8 °F 48% 29.94 in 10.0 mi NNW 6.9 mph - N/A   Clear
10:36 PM 60.8 °F 42.8 °F 52% 29.94 in 10.0 mi NNW 6.9 mph - N/A   Clear
10:56 PM 60.8 °F 42.8 °F 52% 29.95 in 10.0 mi NNW 8.1 mph - N/A   Clear
11:16 PM 60.8 °F 42.8 °F 52% 29.95 in 10.0 mi NNW 8.1 mph - N/A   Clear
11:36 PM 60.8 °F 42.8 °F 52% 29.96 in 10.0 mi NNW 6.9 mph - N/A   Clear
11:56 PM 60.8 °F 42.8 °F 52% 29.96 in 10.0 mi NNW 8.1 mph - N/A   Clear